Regional Weather Roundup
Issued by NWS State College, PA

Home | Current Version | Previous Version | Graphics & Text | Print | Product List | Glossary Off
Versions: 1 2 3 4 5 6 7 8 9 10 11 12 13 14 15 16 17 18 19 20 21 22 23 24 25 26 27 28 29 30 31 32 33 34 35 36 37 38 39 40 41 42 43 44 45 46 47 48 49 50

000
ASUS41 KCTP 230310
RWRCTP
REGIONAL WEATHER ROUNDUP
NATIONAL WEATHER SERVICE STATE COLLEGE PA
1100 PM EDT FRI SEP 22 2017

Note: "fair" indicates few or no clouds below 12,000 feet with no
significant weather and/or obstructions to visibility.

* = STATION THAT DOES NOT REPORT PRECIPITATION /E.G. RAIN...SNOW...ETC/
    THUNDER OR FOG.

PAZ002>004-007>009-013>016-020>023-029>032-230400-
WESTERN PENNSYLVANIA

CITY           SKY/WX    TMP DP  RH WIND       PRES   REMARKS
ERIE           CLEAR     63  57  81 CALM      30.10S
MEADVILLE      CLEAR     66  53  63 CALM      30.13S
FRANKLIN*      CLEAR     62  58  86 CALM      30.14R
NEW CASTLE     FAIR      62  59  90 CALM      30.12R
BEAVER COUNTY  NOT AVBL
BUTLER*        CLEAR     63  57  81 N3        30.12R
PITTSBURGH INT MOCLDY    69  59  70 CALM      30.10S
PITTSBURGH     CLEAR     72  51  47 N3        30.10R
INDIANA*       CLEAR     63  57  82 CALM      30.14R
LATROBE        CLEAR     61  61 100 CALM      30.11R
WASHINGTON CO* CLEAR     61  57  88 CALM      30.11R
$$

PAZ004>006-010>012-017>019-024>028-033>037-041-042-045-046-049>053-230400-
CENTRAL PENNSYLVANIA

CITY           SKY/WX    TMP DP  RH WIND       PRES   REMARKS
BRADFORD       CLEAR     57  55  93 CALM      30.15S
DUBOIS         CLEAR     66  51  58 NE7       30.13S
CLEARFIELD     CLEAR     65  52  62 NE5       30.13R
JOHNSTOWN      CLEAR     69  50  50 E5        30.15R
ALTOONA        CLEAR     64  56  75 E3        30.11R
STATE COLLEGE  PTCLDY    67  55  66 CALM      30.11R
WILLIAMSPORT   PTCLDY    65  56  72 CALM      30.07R
SELINSGROVE    CLEAR     57  56  96 NW3       30.08R
FT INDIANTOWN  CLEAR     65  54  66 S5        30.01F
CAPITAL CITY   CLEAR     62  55  77 SW5       30.05R
HARRISBURG     PTCLDY    65  58  78 N6        30.04R
YORK           CLOUDY    57  57 100 CALM      30.05R
$$

PAZ038>040-043-044-047-048-054-055-060>062-067>071-230400-
EASTERN PENNSYLVANIA

CITY           SKY/WX    TMP DP  RH WIND       PRES   REMARKS
SCRANTON       CLEAR     60  52  74 CALM      30.08R
MOUNT POCONO   CLEAR     63  44  50 N6        30.10R
ALLENTOWN      CLEAR     68  53  58 CALM      30.03R
QUAKERTOWN*    CLEAR     66  54  63 N3        30.04R
READING        CLEAR     64  59  83 CALM      30.02S
LANCASTER      CLEAR     66  58  75 W5        30.04R
COATESVILLE    CLEAR     70  52  52 N7        30.05R
POTTSTOWN      CLEAR     66  53  63 CALM      30.04R
BLUE BELL      CLEAR     63  55  77 CALM      30.03R
DOYLESTOWN     MOCLDY    69  54  58 NE5       30.01R
WILLOW GROVE   NOT AVBL
NORTH PHILA    CLOUDY    75  56  51 N8        30.01R
PHILADELPHIA   MOCLDY    74  54  49 N8        30.00R
$$




USA.gov is the U.S. government's official web portal to all federal, state and local government web resources and services.